When you browse on this site, cookies collect data to enhance your experience and personalize the content and advertising you see.
Visit our Privacy Policy to learn more. By continuing to use the site, you agree to this use of cookies and data.
  • In Switzerland
  • List of Countries
  • For 7 days
  • Water Temperature
  • Weather Map
  • Weather Widgets
  • user-avatar
    Login

    Hourly Weather Zalozie

    Today, 23 September, Monday

    Time Temperature Precipitation Wind Pressure Humidity
    00:00 +14°C° 0 mm 2 mps 748 mmHg 59%
    01:00 +14°C° 0 mm 2 mps 748 mmHg 60%
    02:00 +13°C° 0 mm 2 mps 748 mmHg 62%
    03:00 +13°C° 0 mm 2 mps 748 mmHg 64%
    04:00 +13°C° 0 mm 2 mps 747 mmHg 66%
    05:00 +13°C° 0 mm 2 mps 748 mmHg 69%
    06:00 +12°C° 0 mm 3 mps 748 mmHg 71%
    07:00 +13°C° 0 mm 3 mps 748 mmHg 74%
    08:00 +16°C° 0 mm 3 mps 748 mmHg 67%
    09:00 +18°C° 0 mm 3 mps 748 mmHg 61%
    10:00 +20°C° 0 mm 4 mps 748 mmHg 54%
    11:00 +20°C° 0 mm 4 mps 748 mmHg 51%
    12:00 +21°C° 0 mm 4 mps 748 mmHg 49%
    13:00 +22°C° 0 mm 4 mps 748 mmHg 46%
    14:00 +22°C° 0 mm 4 mps 748 mmHg 48%
    15:00 +22°C° 0 mm 4 mps 748 mmHg 50%
    16:00 +21°C° 0 mm 4 mps 747 mmHg 52%
    17:00 +19°C° 0 mm 4 mps 748 mmHg 59%
    18:00 +18°C° 0 mm 4 mps 748 mmHg 66%
    19:00 +15°C° 0 mm 4 mps 748 mmHg 73%
    20:00 +14°C° 0 mm 4 mps 748 mmHg 76%
    21:00 +13°C° 0 mm 4 mps 748 mmHg 80%
    22:00 +13°C° 0 mm 3 mps 749 mmHg 84%
    23:00 +12°C° 0 mm 3 mps 749 mmHg 87%

    Tomorrow, 24 September, Tuesday

    Time Temperature Precipitation Wind Pressure Humidity
    00:00 +12°C° 0 mm 3 mps 749 mmHg 89%
    01:00 +11°C° 0 mm 3 mps 749 mmHg 92%
    02:00 +11°C° 0 mm 3 mps 749 mmHg 93%
    03:00 +10°C° 0 mm 3 mps 748 mmHg 94%
    04:00 +10°C° 0 mm 3 mps 748 mmHg 94%
    05:00 +11°C° 0 mm 3 mps 748 mmHg 92%
    06:00 +11°C° 0 mm 3 mps 748 mmHg 89%
    07:00 +12°C° 0 mm 2 mps 748 mmHg 86%
    08:00 +15°C° 0 mm 2 mps 748 mmHg 77%
    09:00 +17°C° 0 mm 2 mps 748 mmHg 69%
    10:00 +19°C° 0 mm 2 mps 748 mmHg 60%
    11:00 +20°C° 0 mm 2 mps 748 mmHg 56%
    12:00 +21°C° 0 mm 2 mps 748 mmHg 52%
    13:00 +23°C° 0 mm 2 mps 747 mmHg 48%
    14:00 +23°C° 0 mm 2 mps 747 mmHg 48%
    15:00 +23°C° 0 mm 2 mps 746 mmHg 47%
    16:00 +23°C° 0 mm 2 mps 746 mmHg 47%
    17:00 +20°C° 0 mm 2 mps 746 mmHg 50%
    18:00 +19°C° 0 mm 3 mps 746 mmHg 53%
    19:00 +18°C° 0 mm 3 mps 746 mmHg 57%
    20:00 +17°C° 0 mm 3 mps 746 mmHg 58%
    21:00 +17°C° 0 mm 3 mps 746 mmHg 59%
    22:00 +16°C° 0 mm 3 mps 746 mmHg 61%
    23:00 +16°C° 0 mm 3 mps 746 mmHg 63%

    Day after tomorrow, 25 September, Wednesday

    Time Temperature Precipitation Wind Pressure Humidity
    00:00 +14°C° 0 mm 3 mps 745 mmHg 65%
    01:00 +14°C° 0 mm 3 mps 745 mmHg 67%
    02:00 +13°C° 0.1 mm 3 mps 745 mmHg 70%
    03:00 +13°C° 0.1 mm 3 mps 744 mmHg 72%
    04:00 +14°C° 0.1 mm 2 mps 744 mmHg 75%
    05:00 +14°C° 0.1 mm 2 mps 744 mmHg 78%
    06:00 +15°C° 0.1 mm 2 mps 744 mmHg 81%
    07:00 +15°C° 0.1 mm 2 mps 743 mmHg 84%
    08:00 +16°C° 0.2 mm 2 mps 743 mmHg 79%
    09:00 +18°C° 0.2 mm 3 mps 743 mmHg 74%
    10:00 +19°C° 0.2 mm 3 mps 743 mmHg 69%
    11:00 +19°C° 0.3 mm 3 mps 743 mmHg 68%
    12:00 +19°C° 0.3 mm 3 mps 743 mmHg 67%
    13:00 +19°C° 0.3 mm 3 mps 742 mmHg 66%
    14:00 +19°C° 0.1 mm 3 mps 742 mmHg 67%
    15:00 +19°C° 0.1 mm 3 mps 742 mmHg 68%
    16:00 +19°C° 0.1 mm 3 mps 742 mmHg 70%
    17:00 +18°C° 0.4 mm 3 mps 742 mmHg 75%
    18:00 +17°C° 0.4 mm 3 mps 742 mmHg 80%
    19:00 +16°C° 0.4 mm 3 mps 742 mmHg 85%
    20:00 +14°C° 0.2 mm 4 mps 743 mmHg 84%
    21:00 +14°C° 0.2 mm 4 mps 743 mmHg 83%
    22:00 +14°C° 0.2 mm 4 mps 743 mmHg 82%
    23:00 +13°C° 0 mm 4 mps 743 mmHg 83%

    26 September, Thursday

    Time Temperature Precipitation Wind Pressure Humidity
    00:00 +13°C° 0 mm 5 mps 743 mmHg 84%
    01:00 +13°C° 0 mm 5 mps 743 mmHg 85%
    02:00 +13°C° 0 mm 5 mps 744 mmHg 85%
    03:00 +13°C° 0 mm 4 mps 744 mmHg 85%
    04:00 +13°C° 0 mm 4 mps 744 mmHg 85%
    05:00 +13°C° 0.2 mm 4 mps 744 mmHg 85%
    06:00 +12°C° 0.2 mm 4 mps 745 mmHg 84%
    07:00 +12°C° 0.2 mm 4 mps 745 mmHg 84%
    08:00 +13°C° 0.1 mm 4 mps 745 mmHg 83%
    09:00 +13°C° 0.1 mm 4 mps 746 mmHg 82%
    10:00 +14°C° 0.1 mm 4 mps 746 mmHg 80%
    11:00 +15°C° 0.1 mm 4 mps 746 mmHg 74%
    12:00 +18°C° 0.1 mm 4 mps 746 mmHg 67%
    13:00 +19°C° 0.1 mm 4 mps 746 mmHg 61%
    14:00 +19°C° 0.1 mm 3 mps 746 mmHg 60%
    15:00 +19°C° 0.1 mm 3 mps 746 mmHg 59%
    16:00 +19°C° 0.1 mm 3 mps 746 mmHg 58%
    17:00 +18°C° 0 mm 3 mps 746 mmHg 64%
    18:00 +17°C° 0 mm 2 mps 747 mmHg 71%
    19:00 +15°C° 0 mm 2 mps 747 mmHg 77%
    20:00 +15°C° 0 mm 2 mps 747 mmHg 79%
    21:00 +15°C° 0 mm 2 mps 748 mmHg 81%
    22:00 +14°C° 0 mm 2 mps 748 mmHg 83%
    23:00 +14°C° 0 mm 2 mps 748 mmHg 85%

    27 September, Friday

    Time Temperature Precipitation Wind Pressure Humidity
    00:00 +14°C° 0 mm 2 mps 748 mmHg 87%
    01:00 +13°C° 0 mm 2 mps 748 mmHg 88%
    02:00 +13°C° 0 mm 2 mps 748 mmHg 89%
    03:00 +13°C° 0 mm 2 mps 748 mmHg 90%
    04:00 +13°C° 0 mm 2 mps 748 mmHg 92%
    05:00 +12°C° 0 mm 3 mps 748 mmHg 90%
    06:00 +13°C° 0 mm 3 mps 748 mmHg 89%
    07:00 +13°C° 0 mm 3 mps 748 mmHg 87%
    08:00 +14°C° 0 mm 3 mps 748 mmHg 82%
    09:00 +17°C° 0 mm 4 mps 748 mmHg 77%
    10:00 +18°C° 0 mm 4 mps 748 mmHg 72%
    11:00 +18°C° 0 mm 4 mps 748 mmHg 73%
    12:00 +19°C° 0 mm 3 mps 748 mmHg 74%
    13:00 +19°C° 0 mm 3 mps 748 mmHg 75%
    14:00 +19°C° 0 mm 3 mps 747 mmHg 72%
    15:00 +20°C° 0 mm 4 mps 747 mmHg 70%
    16:00 +20°C° 0 mm 4 mps 747 mmHg 68%
    17:00 +19°C° 0 mm 3 mps 747 mmHg 73%
    18:00 +18°C° 0 mm 3 mps 747 mmHg 77%
    19:00 +17°C° 0 mm 3 mps 747 mmHg 81%
    20:00 +17°C° 0.1 mm 3 mps 747 mmHg 82%
    21:00 +17°C° 0.1 mm 3 mps 747 mmHg 83%
    22:00 +17°C° 0.1 mm 4 mps 747 mmHg 84%
    23:00 +15°C° 0 mm 4 mps 747 mmHg 84%

    28 September, Saturday

    Time Temperature Precipitation Wind Pressure Humidity
    00:00 +15°C° 0 mm 4 mps 747 mmHg 84%
    01:00 +15°C° 0 mm 4 mps 746 mmHg 84%
    02:00 +15°C° 0.1 mm 4 mps 746 mmHg 85%
    03:00 +15°C° 0.1 mm 5 mps 747 mmHg 87%
    04:00 +15°C° 0.1 mm 6 mps 747 mmHg 88%
    05:00 +15°C° 1.1 mm 5 mps 746 mmHg 90%
    06:00 +15°C° 1.1 mm 4 mps 746 mmHg 91%
    07:00 +15°C° 1.1 mm 4 mps 746 mmHg 93%
    08:00 +15°C° 0.4 mm 5 mps 746 mmHg 88%
    09:00 +16°C° 0.4 mm 5 mps 746 mmHg 84%
    10:00 +17°C° 0.4 mm 6 mps 746 mmHg 80%
    11:00 +17°C° 0.4 mm 6 mps 746 mmHg 75%
    12:00 +19°C° 0.4 mm 6 mps 746 mmHg 70%
    13:00 +19°C° 0.4 mm 6 mps 746 mmHg 66%
    14:00 +19°C° 0.1 mm 5 mps 745 mmHg 65%
    15:00 +19°C° 0.1 mm 4 mps 745 mmHg 64%
    16:00 +19°C° 0.1 mm 4 mps 745 mmHg 64%
    17:00 +18°C° 0.2 mm 3 mps 745 mmHg 69%
    18:00 +17°C° 0.2 mm 3 mps 745 mmHg 75%
    19:00 +14°C° 0.2 mm 3 mps 745 mmHg 80%
    20:00 +14°C° 0.1 mm 4 mps 745 mmHg 78%
    21:00 +14°C° 0.1 mm 4 mps 745 mmHg 76%
    22:00 +14°C° 0.1 mm 4 mps 746 mmHg 74%
    23:00 +13°C° 0 mm 5 mps 745 mmHg 75%
    Show more